Location: Jechtingen
(48.1188°N, 7.6077°E)
Time: 07:07:59
(UTC+00:00)

Daily predictions for brighter satellites

Satellite Brightness Start Highest point End
(mag) Time Altitude Azimuth Time Altitude Azimuth Time Altitude Azimuth
Cosmos 1727 Rocket 4.1 19:15:45 10° N 19:22:08 70° E 19:28:27 10° SSE
Cosmos 2251 Rocket 3.5 19:18:18 10° SSW 19:23:30 72° ESE 19:28:48 10° NNE
Cosmos 1656 3.7 19:21:23 10° NNW 19:26:52 71° ENE 19:32:23 10° SE
Cosmos 1633 3.3 19:27:44 10° SSW 19:31:14 56° WNW 19:34:44 10° N
Cosmos 220 Rocket 4.3 19:27:22 10° NNW 19:31:28 49° ENE 19:35:34 10° SE
Resurs 01 Rocket 2.0 19:28:49 10° SE 19:33:04 49° ENE 19:37:21 10° N
Cosmos 972 Rocket 3.9 19:28:19 10° NNW 19:33:24 89° WSW 19:38:17 10° SSE
Cosmos 1441 Rocket 3.7 19:34:55 10° SSE 19:38:27 38° E 19:41:58 10° NNE
IRIDIUM 114 4.4 19:35:59 10° SSE 19:41:06 60° E 19:46:15 10° N
Cosmos 614 Rocket 4.3 19:37:09 10° S 19:42:03 46° ESE 19:47:00 10° NNE
Cosmos 1900 4.3 19:40:20 10° SSW 19:45:15 77° ESE 19:50:18 10° NE
USA 267 3.4 19:41:47 10° ENE 19:48:11 54° SE 19:54:34 10° SSW
GP-B 4.3 19:46:18 10° NNE 19:49:59 25° E 19:53:14 12° SE
IRIDIUM 103 4.3 19:45:03 10° S 19:50:14 72° E 19:55:27 10° N
Cosmos 1821 Rocket 4.0 19:46:23 10° S 19:52:24 61° E 19:58:31 10° NNE
COSMOS 2406 3.2 19:48:40 10° SSW 19:54:22 68° ESE 20:00:04 10° NNE
Shenzhou-11 Module 3.0 19:52:32 10° WSW 19:54:26 21° S 19:55:30 16° SSE
Cosmos 1743 Rocket 4.4 19:51:10 10° SSW 19:55:32 55° WNW 19:59:57 10° N
CZ-2C R/B 3.7 19:51:29 10° NNE 19:56:10 83° ESE 20:00:42 10° SSW
SL-16 R/B 4.1 19:53:26 10° N 19:57:22 19° NE 20:01:16 10° E
Intercosmos 25 3.3 19:53:15 10° N 19:57:59 76° E 20:01:21 10° SSE
ERS-1 Rocket 4.1 19:56:08 12° ESE 19:59:56 28° ENE 20:04:11 10° N
Lacrosse 5 3.2 19:55:51 10° NW 20:00:29 34° NNE 20:05:06 10° ENE
Cosmos 2369 3.8 19:57:20 10° NNW 20:03:06 71° ENE 20:08:05 14° SE
Cosmos 1862 3.5 19:59:40 10° SSW 20:03:42 80° W 20:07:48 10° N
Sich 1 3.1 20:00:14 10° S 20:04:38 67° E 20:09:03 10° NNE
Cosmos 1818 3.6 20:02:17 10° NW 20:07:46 82° SW 20:12:24 15° SSE
BREEZE-M DEB (TANK) 2.0 20:05:01 10° W 20:08:15 69° N 20:09:55 13° ENE
IRIDIUM 106 4.4 20:03:18 10° S 20:08:31 81° W 20:13:47 10° N
Cosmos 2082 Rocket 2.7 20:04:21 10° S 20:09:35 39° ESE 20:14:48 10° NE
Cosmos 2278 4.0 20:06:41 10° NNW 20:12:21 58° ENE 20:16:44 17° SE
Cosmos 2123 Rocket 4.1 20:06:32 10° N 20:12:41 60° ENE 20:18:06 14° SSE
Meteor 2-20 4.5 20:08:18 10° N 20:14:29 70° ENE 20:20:07 12° SSE
Spot 2 Rocket 3.6 20:11:25 14° SSE 20:15:45 64° ENE 20:20:49 10° N
Cosmos 2322 Rocket 3.9 20:15:41 10° N 20:19:59 21° NE 20:24:16 10° E
Meteor 1-4 Rocket 2.5 20:16:57 10° N 20:20:24 58° ENE 20:22:27 22° SSE
Cosmos 2239 Rocket 4.4 20:15:35 10° S 20:21:43 85° E 20:27:54 10° N
Cosmos 1184 Rocket 3.7 20:21:02 24° SE 20:22:13 31° E 20:25:11 10° NNE
Cosmos 1190 Rocket 4.0 20:17:10 10° S 20:22:20 61° ESE 20:27:35 10° NNE
CARTOSAT-1 4.3 20:20:05 19° SE 20:22:37 37° ENE 20:26:37 10° N
CZ-2C R/B 4.0 20:18:55 10° N 20:23:44 40° WNW 20:28:33 10° SW
Terra 3.0 20:21:08 17° ESE 20:23:51 28° ENE 20:27:53 10° N
USA 234 3.3 20:18:46 15° ESE 20:24:17 84° NNE 20:30:51 10° NW
Cosmos 407 Rocket 3.5 20:19:57 10° SSW 20:25:16 78° ESE 20:30:35 10° NNE
Cosmos 1605 Rocket 4.4 20:21:08 15° SSE 20:25:55 43° E 20:31:37 10° NNE
Cosmos 1666 Rocket 3.4 20:21:55 10° S 20:26:13 75° E 20:30:33 10° NNE
Cosmos 1238 Rocket 3.5 20:28:02 22° E 20:28:11 23° E 20:30:35 10° NE
MetOp-B 4.3 20:25:44 12° S 20:30:45 76° WSW 20:36:09 10° NNW
Meteor 1-27 Rocket 4.0 20:25:13 10° NNW 20:31:08 74° W 20:36:53 11° S
Cosmos 2360 Rocket 4.3 20:30:17 10° N 20:33:56 17° NE 20:37:34 10° ENE
Cosmos 1437 Rocket 4.3 20:31:24 10° NNE 20:34:19 20° ENE 20:35:27 18° E
BREEZE-M DEB (TANK) 4.2 20:34:58 10° W 20:37:06 13° WSW 20:38:41 10° SSW
SPOT 5 3.1 20:35:54 24° SE 20:38:05 45° ENE 20:42:14 10° N
USA 238 DEB 4.0 20:32:07 10° S 20:38:10 40° ESE 20:44:27 10° NE
USA 238 4.0 20:32:15 10° S 20:38:17 39° ESE 20:44:33 10° NE
Cosmos 1980 Rocket 2.2 20:37:50 10° NNW 20:43:34 85° ENE 20:47:05 24° SSE
SPOT 1/Viking Rocket 3.5 20:39:53 20° SSE 20:43:38 89° ENE 20:48:54 10° NNW
Cosmos 2242 Rocket 4.1 20:41:27 10° N 20:45:42 43° ENE 20:47:29 29° SE
SL-4 R/B 1.7 20:44:18 10° SW 20:48:10 60° SSE 20:51:35 11° ENE
Cosmos 1763 Rocket 4.3 20:43:27 10° N 20:48:26 39° ENE 20:51:08 23° ESE
BREEZE-M DEB (TANK) 2.7 20:46:15 10° W 20:49:06 79° N 20:56:58 10° E
Genesis I 3.1 20:45:18 10° NW 20:49:12 86° NE 20:50:44 36° SE
Cosmos 405 Rocket 3.2 20:49:22 34° ESE 20:49:58 37° E 20:53:25 10° NNE
Cosmos 1140 Rocket 3.5 20:45:41 10° SSW 20:50:56 84° WNW 20:56:14 10° NNE
ATLAS 5 CENTAUR R/B 3.8 20:47:05 10° WNW 20:52:03 29° WSW 20:57:17 11° S
USA 32 4.0 20:53:02 18° S 20:56:56 83° E 21:02:12 10° N
Cosmos 1697 Rocket 3.6 20:53:51 10° NW 20:59:06 42° WSW 21:03:04 17° S
Cosmos 1633 Rocket 3.5 20:55:10 10° SSW 20:59:32 61° WNW 21:03:57 10° N
Cosmos 1833 Rocket 3.3 20:54:41 10° SW 21:00:13 59° WNW 21:05:48 10° NNE
Cosmos 1867 3.5 21:01:10 10° SSW 21:06:35 76° SE 21:12:03 10° NE
CENTAUR R/B 3.0 21:04:46 29° SSE 21:06:45 36° ESE 21:12:53 10° NE
Meteor 1-18 Rocket 4.2 21:01:35 10° N 21:07:12 71° ENE 21:09:50 32° SSE
Okean 1-7 3.4 21:03:11 10° N 21:07:24 46° ENE 21:08:30 37° ESE
Resurs 01 Rocket 3.9 21:06:38 10° SW 21:09:51 20° W 21:13:04 10° NW
FALCON 9 DEB 3.0 21:10:23 10° SW 21:13:51 75° SSE 21:15:22 31° ENE
Cosmos 1447 Rocket 4.5 21:07:57 10° N 21:14:21 83° E 21:17:47 29° SSE
Cosmos 1850 Rocket 4.4 21:14:19 36° SE 21:15:39 43° ESE 21:20:38 10° NE
Meteor 2-4 Rocket 4.1 21:11:18 10° N 21:16:51 49° ENE 21:18:53 33° SE
Cosmos 1515 3.7 21:14:01 10° N 21:17:50 60° ENE 21:18:22 53° ESE
Cosmos 676 Rocket 4.2 21:14:31 10° SSW 21:19:51 76° WNW 21:25:14 10° NNE
Cosmos 44 4.4 21:16:16 10° NNW 21:20:47 37° NE 21:23:08 24° E
ATLAS 5 CENTAUR R/B 3.0 21:18:46 10° NNW 21:21:12 34° NE 21:23:25 22° E
Meteor 1-25 Rocket 4.2 21:17:53 19° SSW 21:22:00 79° WNW 21:27:39 10° N
Cosmos 1470 Rocket 3.9 21:19:31 22° SSW 21:22:15 63° WNW 21:26:39 10° N
SWARM A 4.2 21:19:41 10° N 21:22:57 65° ENE 21:22:57 65° ENE
GP-B 4.5 21:23:18 10° NNW 21:27:23 36° W 21:30:41 14° SW
USA 267 3.7 21:24:50 10° NE 21:31:18 64° NNW 21:37:45 10° WSW
NOSS 3-2 (A) 3.3 21:26:55 10° SW 21:32:38 82° SE 21:39:13 10° NE
Cosmos 921 Rocket 3.5 21:29:40 10° NNW 21:33:47 50° WSW 21:34:51 39° SSW
ERS-1 Rocket 3.8 21:36:08 26° SSW 21:38:32 44° W 21:43:21 10° NNW
NOSS 3-2 (C) 3.4 21:35:51 31° S 21:38:33 60° ESE 21:44:57 10° NE
Cosmos 841 Rocket 3.8 21:35:24 10° NNW 21:40:32 54° ENE 21:42:00 40° ESE
Cosmos 540 Rocket 3.8 21:36:54 10° NNW 21:41:59 53° ENE 21:43:22 41° ESE
SL-16 R/B 2.2 21:36:45 10° NNW 21:42:28 77° ENE 21:44:17 45° SE
Lacrosse 5 1.8 21:38:56 10° NW 21:44:02 80° NE 21:45:31 47° ESE
Cosmos 468 Rocket 4.1 21:38:52 10° NNW 21:44:11 72° WSW 21:45:45 45° S
Cosmos 1741 Rocket 3.9 21:48:23 45° S 21:50:01 78° ESE 21:55:19 10° NNE
Cosmos 1570 Rocket 4.1 21:46:32 10° NNW 21:51:52 68° ENE 21:53:10 49° SE
Cosmos 2219 Rocket 4.0 21:48:47 10° N 21:53:13 23° NE 21:56:38 14° E
Cosmos 2082 Rocket 3.4 21:48:17 10° WSW 21:53:39 41° NW 21:59:00 10° NNE
Cosmos 2208 Rocket 4.2 21:48:43 10° NNW 21:53:57 60° ENE 21:55:11 47° ESE
Cosmos 1814 Rocket 4.3 21:49:11 10° NNW 21:54:20 57° ENE 21:55:32 45° ESE
Terra 2.7 22:00:02 32° SW 22:01:26 40° W 22:05:56 10° NNW
Cosmos 2322 Rocket 2.1 21:59:06 10° NNW 22:04:49 89° WSW 22:06:13 54° SSE
USA 234 4.0 22:06:06 31° SSW 22:07:43 35° SW 22:13:37 10° WNW
Cosmos 2100 Rocket 3.9 22:05:35 40° SSW 22:08:00 82° W 22:14:11 10° N
Meteor 1-11 Rocket 3.8 22:09:09 52° SE 22:10:02 58° E 22:15:39 10° NNE
Cosmos 1437 Rocket 3.9 22:07:13 10° NNW 22:10:41 33° W 22:10:50 33° W
Cosmos 1242 Rocket 3.9 22:09:28 10° N 22:12:07 31° NE 22:12:07 31° NE
Cosmos 1869 Rocket 3.8 22:13:01 57° WSW 22:13:39 65° WNW 22:18:06 10° N
Cosmos 2360 Rocket 2.3 22:13:22 10° NNW 22:19:03 68° ENE 22:20:19 52° ESE
COSMOS 2428 4.2 22:14:52 10° NNW 22:19:51 29° NE 22:22:36 20° E
Geosat 3.9 22:20:48 62° SSW 22:21:26 70° WSW 22:26:29 10° NNW
ATLAS 3B R/B 2.8 22:21:12 46° SE 22:21:38 46° ESE 22:27:55 10° NE
Iridium 4 Rocket 3.4 22:21:44 54° WSW 22:22:10 57° W 22:26:22 10° N
Cosmos 2173 Rocket 4.1 22:21:11 38° SSW 22:23:36 69° WNW 22:29:44 10° N
Cosmos 1500 4.0 22:25:10 45° WNW 22:25:10 45° WNW 22:28:42 10° N
CRYOSAT 2 4.2 22:21:26 10° N 22:26:22 86° E 22:26:46 75° S
Cosmos 1980 Rocket 4.2 22:23:23 10° WNW 22:26:47 16° W 22:28:51 14° WSW
ALOS 2 3.0 22:27:44 50° ENE 22:27:45 50° ENE 22:32:01 10° N
SL-4 R/B 2.7 22:24:10 10° W 22:27:13 45° NW 22:27:13 45° NW
Cosmos 1725 Rocket 3.9 22:27:19 54° SSE 22:28:51 78° E 22:35:12 10° NNE
USA 238 DEB 4.3 22:22:22 10° WSW 22:28:55 57° NW 22:35:48 10° NE
USA 238 4.2 22:22:28 10° WSW 22:29:01 57° NW 22:35:54 10° NE
Cosmos 1674 Rocket 3.9 22:29:13 10° N 22:33:13 56° ENE 22:33:13 56° ENE
SL-08 R/B 4.3 22:32:19 56° S 22:33:42 85° E 22:39:49 10° N
Cosmos 1536 3.2 22:34:39 58° NNE 22:34:39 58° NNE 22:37:58 10° NNE
Cosmos 1666 3.3 22:37:32 53° N 22:37:32 53° N 22:40:30 10° N
Cosmos 1743 4.3 22:38:17 27° ENE 22:38:17 27° ENE 22:40:38 10° NNE
Cosmos 2333 Rocket 3.0 22:33:58 10° NNW 22:39:31 45° NE 22:41:19 35° E
Cosmos 1271 Rocket 4.0 22:37:58 10° N 22:40:47 34° NE 22:40:47 34° NE
Cosmos 2016 Rocket 4.1 22:39:51 46° SSW 22:41:48 73° W 22:48:13 10° N
Meteor 1-13 Rocket 4.4 22:37:03 10° NNW 22:42:29 57° W 22:43:23 51° SW
Cosmos 2061 Rocket 4.1 22:41:23 47° SSW 22:43:13 72° W 22:49:25 10° N
Cosmos 2237 Rocket 4.3 22:39:08 10° N 22:43:19 21° NE 22:47:28 10° E
Lacrosse 4 Rocket 3.2 22:45:23 23° ENE 22:45:23 23° ENE 22:47:21 10° NE
MOS 1-B Rocket 4.0 22:39:20 10° N 22:45:01 65° WNW 22:46:44 43° SW
Cosmos 2221 Rocket 4.1 22:42:11 10° NNW 22:46:29 50° W 22:46:29 50° W
Cosmos 1733 Rocket 3.1 22:50:59 74° NNW 22:50:59 74° NNW 22:55:06 10° N
SL-27 R/B 4.4 22:53:08 25° NW 22:53:08 25° NW 22:55:42 10° N
Cosmos 1066 Rocket 4.1 22:47:18 10° NNW 22:53:03 80° W 22:53:46 68° SSW
Meteor 1-23 Rocket 4.2 22:49:01 10° NNW 22:54:52 81° W 22:55:42 66° SSW
Thor Agena Rocket 3.6 22:51:13 10° N 22:56:15 68° WNW 22:56:59 59° WSW
CENTAUR R/B 3.1 22:51:50 15° WSW 22:57:03 58° NW 23:04:17 10° NE
Cosmos 968 Rocket 4.0 22:59:01 44° E 22:59:01 44° E 23:03:22 10° NNE
Cosmos 1975 4.5 23:02:22 26° ENE 23:02:22 26° ENE 23:04:51 10° NNE
Cosmos 44 4.1 22:57:26 10° NW 23:01:33 42° W 23:01:33 42° W
Cosmos 1378 4.3 23:09:52 10° NNW 23:12:29 42° NNW 23:12:29 42° NNW
USA 267 4.4 23:07:42 10° ENE 23:13:45 42° N 23:19:48 10° WNW
Cosmos 2233 Rocket 4.0 23:14:31 56° SSW 23:15:53 75° W 23:22:15 10° N
Cosmos 1464 Rocket 4.4 23:15:36 43° ESE 23:16:33 47° E 23:22:27 10° NNE
Cosmos 1908 Rocket 3.9 23:18:33 63° NE 23:18:33 63° NE 23:22:18 10° NNE
Cosmos 1842 4.3 23:14:38 10° N 23:17:41 42° NE 23:17:41 42° NE
Helios 1B rocket 4.4 23:19:35 10° NE 23:21:48 20° ENE 23:21:48 20° ENE
Cosmos 2227 Rocket 4.3 23:22:42 13° E 23:22:48 13° E 23:25:07 10° ENE
SL-16 R/B 3.9 23:22:05 10° WNW 23:25:53 19° W 23:26:08 19° WSW
Lacrosse 5 3.7 23:22:31 10° WNW 23:24:40 20° W 23:24:40 20° W
Cosmos 2322 3.6 23:23:40 10° NNW 23:29:19 68° WSW 23:29:31 68° SW
Cosmos 1378 Rocket 4.3 23:25:03 10° NNW 23:28:49 46° WNW 23:28:49 46° WNW
Cosmos 1833 4.3 23:28:44 55° WSW 23:29:48 68° WNW 23:35:29 10° NNE
COSMOS 2487 4.2 23:32:14 31° NNW 23:32:14 31° NNW 23:34:23 10° N
Nadezhda 4 Rocket 4.4 23:30:18 10° N 23:36:28 53° ENE 23:38:04 43° ESE
Cosmos 2219 Rocket 2.0 23:32:11 10° NNW 23:37:53 83° WSW 23:38:19 76° S
Cosmos 1975 Rocket 3.3 23:38:21 10° N 23:42:25 70° NNE 23:42:25 70° NNE
Cosmos 2333 4.4 23:38:03 10° NW 23:43:41 54° WSW 23:43:44 54° WSW
Cosmos 1513 Rocket 4.5 23:42:38 61° SSE 23:43:46 76° E 23:50:12 10° NNE
Cosmos 2034 Rocket 4.3 23:43:53 48° SE 23:44:59 55° E 23:51:08 10° NNE
Okean 2 Rocket 4.3 23:45:22 33° E 23:45:22 33° E 23:49:04 10° NNE
Cosmos 1503 Rocket 3.9 23:45:55 76° SE 23:46:03 77° ESE 23:51:27 10° NNE
Cosmos 1072 Rocket 4.3 23:46:51 66° S 23:47:46 84° E 23:53:54 10° N
YAOGAN 11 4.3 23:48:26 68° NW 23:48:26 68° NW 23:52:37 10° NNW
Cosmos 2322 Rocket 4.2 23:44:54 10° WNW 23:48:00 15° W 23:48:00 15° W
Helios 1A 3.7 23:49:48 48° NW 23:49:48 48° NW 23:53:08 10° NNW
SL-16 R/B 4.1 23:46:15 15° ESE 23:50:27 30° ENE 23:55:44 10° N
ERBS 4.4 23:48:49 10° NW 23:51:02 26° N 23:51:02 26° N
Cosmos 1486 Rocket 4.3 23:52:11 53° W 23:52:48 57° WNW 23:57:58 10° NNE
Cosmos 1544 4.5 23:54:38 37° NNW 23:54:38 37° NNW 23:57:08 10° N
CZ-2D R/B 4.1 23:50:02 10° NE 23:53:36 17° E 23:54:54 16° ESE
SL-16 R/B 4.2 23:48:58 10° N 23:53:38 25° NE 23:58:17 10° E
Sich 1 Rocket 3.9 23:55:31 59° NE 23:55:31 59° NE 23:59:22 10° NNE
